• în România
  • Lista ţărilor
  • Pe 7 zile
  • Temperatura apei
  • Hartă satelitară
  • Meteo pe hartă
  • Widget-uri
  • user-avatar
    Intrare

    Meteo pe oră la Yulara

    Astăzi, 21 Octombrie, Duminică

    Timp Temperatura Precipitaţii Vânt Presiune Umiditate
    00:00 +23°C° 0 mm 6 m/s 719 mmHg 20%
    01:00 +22°C° 0 mm 6 m/s 719 mmHg 21%
    02:00 +21°C° 0 mm 5 m/s 719 mmHg 22%
    03:00 +20°C° 0 mm 5 m/s 718 mmHg 23%
    04:00 +20°C° 0 mm 5 m/s 719 mmHg 23%
    05:00 +19°C° 0 mm 5 m/s 719 mmHg 24%
    06:00 +19°C° 0 mm 4 m/s 719 mmHg 25%
    07:00 +21°C° 0 mm 5 m/s 719 mmHg 22%
    08:00 +25°C° 0 mm 5 m/s 720 mmHg 19%
    09:00 +27°C° 0 mm 6 m/s 720 mmHg 16%
    10:00 +29°C° 0 mm 5 m/s 719 mmHg 15%
    11:00 +32°C° 0 mm 4 m/s 719 mmHg 14%
    12:00 +34°C° 0 mm 3 m/s 718 mmHg 13%
    13:00 +35°C° 0 mm 3 m/s 718 mmHg 11%
    14:00 +36°C° 0 mm 3 m/s 717 mmHg 10%
    15:00 +36°C° 0 mm 2 m/s 716 mmHg 9%
    16:00 +36°C° 0 mm 2 m/s 716 mmHg 9%
    17:00 +36°C° 0 mm 2 m/s 716 mmHg 10%
    18:00 +35°C° 0 mm 2 m/s 716 mmHg 10%
    19:00 +34°C° 0 mm 2 m/s 716 mmHg 11%
    20:00 +31°C° 0 mm 2 m/s 716 mmHg 11%
    21:00 +29°C° 0 mm 2 m/s 716 mmHg 12%
    22:00 +29°C° 0 mm 3 m/s 716 mmHg 13%
    23:00 +28°C° 0 mm 3 m/s 716 mmHg 14%

    Mâine, 22 Octombrie, Luni

    Timp Temperatura Precipitaţii Vânt Presiune Umiditate
    00:00 +27°C° 0 mm 3 m/s 716 mmHg 15%
    01:00 +26°C° 0 mm 3 m/s 716 mmHg 16%
    02:00 +25°C° 0 mm 2 m/s 715 mmHg 18%
    03:00 +24°C° 0 mm 2 m/s 715 mmHg 19%
    04:00 +24°C° 0 mm 2 m/s 715 mmHg 19%
    05:00 +24°C° 0 mm 3 m/s 715 mmHg 19%
    06:00 +24°C° 0 mm 3 m/s 715 mmHg 19%
    07:00 +27°C° 0 mm 3 m/s 716 mmHg 17%
    08:00 +30°C° 0 mm 4 m/s 716 mmHg 14%
    09:00 +34°C° 0 mm 5 m/s 717 mmHg 11%
    10:00 +36°C° 0 mm 4 m/s 716 mmHg 10%
    11:00 +37°C° 0 mm 3 m/s 716 mmHg 8%
    12:00 +39°C° 0 mm 3 m/s 716 mmHg 7%
    13:00 +39°C° 0 mm 3 m/s 715 mmHg 6%
    14:00 +41°C° 0 mm 4 m/s 714 mmHg 6%
    15:00 +41°C° 0 mm 4 m/s 714 mmHg 6%
    16:00 +40°C° 0 mm 3 m/s 714 mmHg 7%
    17:00 +39°C° 0 mm 3 m/s 714 mmHg 7%
    18:00 +38°C° 0 mm 2 m/s 714 mmHg 8%
    19:00 +37°C° 0 mm 3 m/s 714 mmHg 8%
    20:00 +36°C° 0 mm 3 m/s 715 mmHg 9%
    21:00 +34°C° 0 mm 4 m/s 715 mmHg 9%
    22:00 +33°C° 0 mm 6 m/s 715 mmHg 12%
    23:00 +32°C° 0 mm 7 m/s 715 mmHg 15%

    Poimâine, 23 Octombrie, Marţi

    Timp Temperatura Precipitaţii Vânt Presiune Umiditate
    00:00 +29°C° 0 mm 9 m/s 715 mmHg 18%
    01:00 +28°C° 0 mm 9 m/s 715 mmHg 21%
    02:00 +27°C° 0 mm 9 m/s 715 mmHg 24%
    03:00 +26°C° 0 mm 9 m/s 715 mmHg 27%
    04:00 +24°C° 0 mm 9 m/s 715 mmHg 31%
    05:00 +23°C° 0 mm 9 m/s 716 mmHg 36%
    06:00 +22°C° 0 mm 9 m/s 716 mmHg 41%
    07:00 +23°C° 0 mm 9 m/s 717 mmHg 38%
    08:00 +26°C° 0 mm 9 m/s 717 mmHg 34%
    09:00 +27°C° 0 mm 9 m/s 718 mmHg 31%
    10:00 +29°C° 0 mm 8 m/s 717 mmHg 27%
    11:00 +32°C° 0 mm 7 m/s 717 mmHg 23%
    12:00 +34°C° 0 mm 7 m/s 717 mmHg 19%
    13:00 +35°C° 0 mm 6 m/s 717 mmHg 17%
    14:00 +36°C° 0 mm 5 m/s 716 mmHg 16%
    15:00 +37°C° 0 mm 4 m/s 715 mmHg 14%
    16:00 +36°C° 0 mm 4 m/s 716 mmHg 15%
    17:00 +36°C° 0 mm 5 m/s 716 mmHg 15%
    18:00 +35°C° 0 mm 5 m/s 716 mmHg 15%
    19:00 +34°C° 0 mm 6 m/s 716 mmHg 17%
    20:00 +32°C° 0 mm 7 m/s 717 mmHg 20%
    21:00 +31°C° 0 mm 8 m/s 718 mmHg 22%
    22:00 +29°C° 0 mm 8 m/s 717 mmHg 22%
    23:00 +28°C° 0 mm 8 m/s 717 mmHg 23%

    24 Octombrie, Miercuri

    Timp Temperatura Precipitaţii Vânt Presiune Umiditate
    00:00 +27°C° 0 mm 8 m/s 717 mmHg 24%
    01:00 +26°C° 0 mm 8 m/s 717 mmHg 24%
    02:00 +26°C° 0 mm 8 m/s 717 mmHg 24%
    03:00 +24°C° 0 mm 8 m/s 717 mmHg 24%
    04:00 +24°C° 0 mm 7 m/s 717 mmHg 25%
    05:00 +23°C° 0 mm 7 m/s 717 mmHg 26%
    06:00 +22°C° 0 mm 6 m/s 718 mmHg 26%
    07:00 +26°C° 0 mm 7 m/s 718 mmHg 23%
    08:00 +28°C° 0 mm 8 m/s 718 mmHg 20%
    09:00 +31°C° 0 mm 9 m/s 719 mmHg 18%
    10:00 +33°C° 0 mm 9 m/s 718 mmHg 16%
    11:00 +35°C° 0 mm 8 m/s 718 mmHg 14%
    12:00 +39°C° 0 mm 8 m/s 718 mmHg 12%
    13:00 +40°C° 0 mm 7 m/s 717 mmHg 12%
    14:00 +40°C° 0 mm 6 m/s 716 mmHg 11%
    15:00 +41°C° 0 mm 5 m/s 715 mmHg 11%
    16:00 +41°C° 0 mm 5 m/s 715 mmHg 12%
    17:00 +40°C° 0 mm 5 m/s 715 mmHg 13%
    18:00 +39°C° 0 mm 6 m/s 715 mmHg 15%
    19:00 +36°C° 0.3 mm 6 m/s 715 mmHg 21%
    20:00 +34°C° 0.3 mm 6 m/s 716 mmHg 27%
    21:00 +32°C° 0.3 mm 6 m/s 716 mmHg 33%
    22:00 +32°C° 0.2 mm 6 m/s 716 mmHg 35%
    23:00 +32°C° 0.2 mm 5 m/s 716 mmHg 38%

    25 Octombrie, Joi

    Timp Temperatura Precipitaţii Vânt Presiune Umiditate
    00:00 +30°C° 0.2 mm 5 m/s 716 mmHg 40%
    01:00 +30°C° 0 mm 4 m/s 716 mmHg 38%
    02:00 +29°C° 0 mm 3 m/s 715 mmHg 36%
    03:00 +29°C° 0 mm 2 m/s 715 mmHg 34%
    04:00 +29°C° 0 mm 4 m/s 715 mmHg 30%
    05:00 +28°C° 0 mm 5 m/s 716 mmHg 26%
    06:00 +28°C° 0 mm 7 m/s 716 mmHg 22%
    07:00 +31°C° 0 mm 8 m/s 716 mmHg 19%
    08:00 +32°C° 0 mm 8 m/s 716 mmHg 15%
    09:00 +34°C° 0 mm 9 m/s 717 mmHg 12%
    10:00 +35°C° 0.2 mm 8 m/s 716 mmHg 13%
    11:00 +36°C° 0.2 mm 6 m/s 716 mmHg 14%
    12:00 +37°C° 0.2 mm 5 m/s 716 mmHg 15%
    13:00 +36°C° 0 mm 6 m/s 715 mmHg 19%
    14:00 +36°C° 0 mm 6 m/s 715 mmHg 23%
    15:00 +36°C° 0 mm 7 m/s 714 mmHg 28%
    16:00 +34°C° 0.4 mm 6 m/s 714 mmHg 33%
    17:00 +33°C° 0.4 mm 5 m/s 715 mmHg 38%
    18:00 +31°C° 0.4 mm 3 m/s 715 mmHg 43%
    19:00 +30°C° 0.1 mm 4 m/s 715 mmHg 46%
    20:00 +29°C° 0.1 mm 4 m/s 716 mmHg 50%
    21:00 +28°C° 0.1 mm 4 m/s 716 mmHg 53%
    22:00 +28°C° 0.1 mm 5 m/s 716 mmHg 55%
    23:00 +27°C° 0.1 mm 5 m/s 716 mmHg 56%

    26 Octombrie, Vineri

    Timp Temperatura Precipitaţii Vânt Presiune Umiditate
    00:00 +27°C° 0.1 mm 6 m/s 716 mmHg 57%
    01:00 +27°C° 0 mm 5 m/s 715 mmHg 54%
    02:00 +26°C° 0 mm 5 m/s 715 mmHg 51%
    03:00 +26°C° 0 mm 5 m/s 715 mmHg 47%
    04:00 +26°C° 0.1 mm 4 m/s 715 mmHg 46%
    05:00 +26°C° 0.1 mm 3 m/s 715 mmHg 45%
    06:00 +26°C° 0.1 mm 2 m/s 716 mmHg 44%
    07:00 +27°C° 0 mm 2 m/s 716 mmHg 40%
    08:00 +29°C° 0 mm 1 m/s 716 mmHg 36%
    09:00 +31°C° 0 mm 1 m/s 717 mmHg 33%
    10:00 +30°C° 0.5 mm 3 m/s 716 mmHg 38%
    11:00 +29°C° 0.5 mm 5 m/s 716 mmHg 44%
    12:00 +28°C° 0.5 mm 7 m/s 716 mmHg 49%
    13:00 +29°C° 0.4 mm 7 m/s 715 mmHg 46%
    14:00 +30°C° 0.4 mm 7 m/s 715 mmHg 42%
    15:00 +30°C° 0.4 mm 7 m/s 715 mmHg 38%
    16:00 +30°C° 0.2 mm 7 m/s 715 mmHg 38%
    17:00 +29°C° 0.2 mm 7 m/s 714 mmHg 38%
    18:00 +29°C° 0.2 mm 7 m/s 714 mmHg 37%
    19:00 +28°C° 0.2 mm 6 m/s 714 mmHg 38%
    20:00 +28°C° 0.2 mm 5 m/s 714 mmHg 40%
    21:00 +27°C° 0.2 mm 4 m/s 714 mmHg 41%
    22:00 +27°C° 0 mm 4 m/s 714 mmHg 41%
    23:00 +27°C° 0 mm 3 m/s 714 mmHg 41%
    Arată mai mult